Theta_e
351 347 347 348 349 353 352 354 359 360 361 362 361 358 355 353 355 360 358 359 359 355
349 349 347 350 351 351 357 356 358 358 359 360 362 360 356 353 353 362 359 361 360 356
347 348 349 349 350 351 356 359 357 356 357 358 359 361 360 357 356 360 365 357 359 358
347 347 348 347 349 350 352 359 358 358 357 356 356 359 363 360 361 360 360 360 359 358
348 349 347 348 349 352 352 356 358 359 358 358 356 357 358 357 356 360 357 358 357 357
348 348 348 350 352 352 353 354 355 356 356 356 356 354 356 358 357 359 359 357 357 356
347 349 349 350 352 353 354 353 353 355 355 356 356 353 353 354 357 359 357 359 358 356
348 350 350 350 351 352 353 352 353 354 354 355 354 352 354 352 356 359 358 359 357 355
349 350 350 351 351 353 353 354 355 354 354 353 351 340 340 350 356 359 357 357 359 359
350 350 351 352 353 352 353 354 353 352 354 353 354 336 336 339 353 355 356 357 360 356
350 351 351 351 352 354 353 352 352 350 350 351 351 334 332 336 352 355 357 358 358 358
343 347 348 347 347 350 351 350 351 350 347 344 347 328 328 335 349 351 355 357 358 357
339 339 342 346 348 348 347 345 348 349 350 340 345 327 325 331 347 351 351 356 355 336
336 337 338 340 341 342 344 344 345 347 347 346 343 343 321 320 346 349 351 348 347 348
Wind_Speed
11 8 7 7 5 4 4 4 4 5 5 5 5 4 4 5 5 5 4 5 4 3
11 11 9 9 7 6 5 4 5 5 5 6 6 6 6 5 6 6 4 4 3 4
12 12 11 10 10 10 8 6 6 6 6 6 5 7 8 6 7 6 4 4 4 4
13 13 12 12 12 11 10 8 7 7 6 6 6 8 7 9 7 8 7 6 6 7
12 12 12 13 13 11 11 10 10 9 8 8 8 8 9 10 9 8 9 8 7 8
12 12 13 13 12 12 12 12 11 11 10 10 9 9 9 10 9 9 9 7 7 8
13 13 13 12 12 12 12 11 11 11 11 11 10 9 9 9 10 10 8 7 7 7
11 11 11 12 12 11 11 10 10 11 12 11 10 9 10 10 10 10 10 9 7 8
9 10 11 13 13 11 12 11 12 13 13 13 10 11 13 11 10 10 10 8 9 8
7 9 10 11 11 13 13 12 13 12 13 14 12 14 15 15 11 10 11 11 9 8
5 7 8 10 12 13 11 14 13 11 10 10 9 12 12 13 12 11 12 11 11 10
3 4 5 9 10 10 9 11 14 12 12 11 11 10 10 9 10 11 13 11 12 11
4 5 6 8 8 7 8 11 11 13 13 11 13 10 12 10 8 11 9 8 11 11
5 6 6 6 6 7 7 8 10 12 11 12 12 11 12 12 9 10 10 8 8 7
Wind_Direction
213 222 232 234 247 260 266 273 263 226 237 209 195 205 222 223 238 248 247 242 224 217
214 219 227 238 246 251 255 247 227 235 234 242 210 214 202 226 233 236 227 259 217 234
215 218 228 231 235 243 252 242 228 234 232 231 230 226 221 217 218 230 208 227 240 243
217 218 220 230 233 233 241 238 237 228 238 246 247 249 226 236 226 227 231 216 229 240
221 219 220 226 229 232 233 237 241 241 235 242 252 248 235 241 237 230 232 222 226 239
218 219 222 227 230 231 230 229 233 237 239 238 236 231 227 242 248 242 244 231 227 245
222 219 222 228 225 224 227 231 230 230 232 236 236 230 238 234 237 239 242 243 227 230
229 226 229 228 228 229 229 230 231 228 226 225 222 232 227 226 232 231 235 231 225 224
220 223 229 237 236 227 227 220 224 220 222 216 215 207 208 227 229 231 233 235 231 232
219 222 228 238 241 231 224 224 223 220 216 220 218 196 195 203 235 236 233 233 231 214
231 236 238 240 240 237 231 231 223 217 216 224 224 193 199 197 223 230 233 228 232 218
346 277 241 242 246 247 223 229 233 234 234 230 232 199 202 203 224 226 224 221 224 219
302 289 279 269 264 257 241 244 243 247 248 247 248 206 212 196 236 233 223 211 223 204
304 275 273 278 275 271 264 243 245 245 245 245 243 238 206 199 224 234 224 210 211 208